TimeCDT,TemperatureF,Dew PointF,Humidity,Sea Level PressureIn,VisibilityMPH,Wind Direction,Wind SpeedMPH,Gust SpeedMPH,PrecipitationIn,Events,Conditions,WindDirDegrees,DateUTC
12:53 AM,50.0,32.0,50,29.95,10.0,South,16.1,24.2,N/A,,Clear,190,2013-04-26 05:53:00
1:53 AM,48.2,32.0,54,29.95,10.0,South,9.2,-,N/A,,Clear,170,2013-04-26 06:53:00
2:53 AM,48.9,32.0,52,29.95,10.0,SSE,5.8,-,N/A,,Clear,160,2013-04-26 07:53:00
3:53 AM,46.0,30.9,56,29.94,10.0,South,9.2,-,N/A,,Clear,180,2013-04-26 08:53:00
4:53 AM,44.1,30.9,60,29.96,10.0,South,6.9,-,N/A,,Clear,180,2013-04-26 09:53:00
5:53 AM,37.0,30.0,76,29.97,10.0,South,3.5,-,N/A,,Clear,170,2013-04-26 10:53:00
6:53 AM,37.0,30.0,76,29.99,10.0,Calm,Calm,-,N/A,,Clear,0,2013-04-26 11:53:00
7:53 AM,42.1,33.1,70,30.01,10.0,Calm,Calm,-,N/A,,Clear,0,2013-04-26 12:53:00
8:53 AM,50.0,33.1,52,30.02,10.0,Calm,Calm,-,N/A,,Clear,0,2013-04-26 13:53:00
9:53 AM,55.0,33.1,43,30.04,10.0,Calm,Calm,-,N/A,,Clear,0,2013-04-26 14:53:00
10:53 AM,62.1,34.0,35,30.04,10.0,Variable,3.5,-,N/A,,Clear,0,2013-04-26 15:53:00
11:53 AM,71.1,28.9,21,30.05,10.0,NE,13.8,21.9,N/A,,Clear,40,2013-04-26 16:53:00
12:53 PM,72.0,28.0,20,30.06,10.0,NE,16.1,25.3,N/A,,Clear,50,2013-04-26 17:53:00
1:53 PM,73.9,27.0,18,30.05,10.0,NNE,20.7,28.8,N/A,,Clear,30,2013-04-26 18:53:00
2:53 PM,73.9,27.0,18,30.06,10.0,NE,19.6,25.3,N/A,,Clear,50,2013-04-26 19:53:00
3:53 PM,75.0,28.0,18,30.07,10.0,NE,17.3,25.3,N/A,,Clear,40,2013-04-26 20:53:00
4:53 PM,73.9,28.9,19,30.07,10.0,NNE,16.1,20.7,N/A,,Clear,20,2013-04-26 21:53:00
5:53 PM,72.0,28.9,20,30.09,10.0,NE,10.4,-,N/A,,Partly Cloudy,50,2013-04-26 22:53:00
6:53 PM,71.1,28.9,21,30.09,10.0,NNE,9.2,-,N/A,,Clear,30,2013-04-26 23:53:00
7:53 PM,66.9,30.9,26,30.10,10.0,NE,6.9,-,N/A,,Clear,50,2013-04-27 00:53:00
8:53 PM,59.0,33.1,38,30.12,10.0,Calm,Calm,-,N/A,,Clear,0,2013-04-27 01:53:00
9:53 PM,52.0,33.1,49,30.14,10.0,Calm,Calm,-,N/A,,Clear,0,2013-04-27 02:53:00
10:53 PM,46.0,33.1,61,30.16,10.0,Calm,Calm,-,N/A,,Clear,0,2013-04-27 03:53:00
11:53 PM,46.0,33.1,61,30.16,10.0,Calm,Calm,-,N/A,,Clear,0,2013-04-27 04:53:00